COSMOS 1275 DEB, 42103

Orbit data source: Space-Track

COSMOS 1275 DEB, 42103 is space debris in LEO originally from a launch on Thu, 04 Jun 1981 UTC launched from the Plesetsk Missile And Space Complex (PKMTR). Debris objects in space refer to the collection of defunct objects orbiting the Earth. Examples of debris include non-operational satellites, rocket bodies, and fragments generated from explosions, collisions, or faulty payload assembly.

Loading next visibility...
Identifier
42103, 1981-053PP
Orbit
LEO
Country
Flag of CISCIS
Related business
Manufacturer
Unknown
Mission
Spacecraft
Bus & Motor
Unknown
Mass
Unknown
Launch date (UTC)
1981-06-04 (44 years ago)
Launch vehicle
Unknown
Launch site
Plesetsk Missile And Space Complex (PKMTR)
Object type
Payload
Rocket body
Debris
Shape & HBR
Unknown
Radar Cross Section
Small (<0.1 m²)

Expand to show TLE details & history
Last TLE update: 2 weeks ago

TLE from 2 weeks ago
0 COSMOS 1275 DEB
1 42103U 81053PP  25247.02269168  .00003799  00000-0  19611-2 0  9999
2 42103  83.1778 162.3232 0025408 195.6778 164.3617 14.14667626604424
Epoch: 2025-09-04T00:32Z
TLE epoch observation values (Epoch: 2025-09-04T00:32:40.561Z)
Latitude
-0.00001°
Longitude
170.76301°
Altitude
864.08 km
Speed
7.411 km/s
True Right ascension
10h 49m 17s
True Declination
0° 00' 00"
Sunlit
Object was in daylight at epoch
Visualization orbit readout
Latitude
Unknown
Longitude
Unknown
Altitude
Unknown
Speed
Unknown
Apparent Right ascension
Unknown
Apparent Declination
Unknown
Sunlit
N/A
Visualization observer readout
Local Sidereal Time
05:23:45
Azimuth
Unknown
Elevation
Unknown
Doppler factor
Unknown
Orbital elements
Apogee altitude
858.869 km
Perigee altitude
822.187 km
Semi-major axis
7,218.665 km
Eccentricity
0.00254
Inclination
83.1778°
RAAN
162.3232°
Arg. of periapsis
195.6778°
True anomaly
164.43995°
Mean anomaly
164.3617°
Eccentric anomaly
164.40085°
Mean motion
3.53881 °/min
Orbital period
101.73 mins
BSTAR
0.0019611
Loading maneuver chart data...
Computing Atmospheric mass density...
Loading historical data...
Loading historical data...
Loading historical data...
Loading historical data...
Loading historical data...
Loading historical data...
Loading historical data...

Documentation

Showing up to 5 results
|